CW5260 Weather Reports


Display with metric or nautical units.
time (UTC)temp
F
wind
direction
speed
MPH
gust
MPH
rain 1hr
in
rain 24hr
in
rain mn
in
humidity
%
barometer
mb
20260506024202 67 244 1.0 5.0 0.00 0.00 0.00 53 1006.6
20260506023702 67 151 1.0 4.0 0.00 0.00 0.00 54 1006.6
20260506023202 67 227 1.0 6.0 0.00 0.00 0.00 54 1006.7
20260506022745 67 250 1.0 12.0 0.00 0.00 0.00 54 1006.7
20260506022203 67 230 0.0 6.0 0.00 0.00 0.00 55 1006.8
20260506021702 67 227 1.0 3.0 0.00 0.00 0.00 56 1006.8
20260506021202 67 230 1.0 7.0 0.00 0.00 0.00 56 1006.8
20260506020744 67 244 0.0 4.0 0.00 0.00 0.00 57 1006.8
20260506020203 67 251 0.0 1.0 0.00 0.00 0.00 60 1006.8
20260506015703 67 252 0.0 2.0 0.00 0.00 0.00 61 1006.8
20260506015244 67 252 0.0 0.0 0.00 0.00 0.00 61 1006.7
20260506014703 67 252 0.0 0.0 0.00 0.00 0.00 61 1006.7
20260506014245 67 252 0.0 0.0 0.00 0.00 0.00 61 1006.8
20260506013703 67 252 0.0 1.0 0.00 0.00 0.00 61 1006.8
20260506013202 67 252 0.0 0.0 0.00 0.00 0.00 61 1006.7
20260506012702 67 252 0.0 1.0 0.00 0.00 0.00 61 1006.7
20260506012202 68 252 0.0 3.0 0.00 0.00 0.00 60 1006.6
20260506011745 68 252 0.0 2.0 0.00 0.00 0.00 60 1006.6
20260506011202 68 252 0.0 3.0 0.00 0.00 0.00 59 1006.5
20260506010702 68 252 0.0 5.0 0.00 0.00 0.00 59 1006.5
20260506010202 68 270 0.0 2.0 0.00 0.00 0.00 58 1006.4
20260506005703 69 270 0.0 2.0 0.00 0.00 0.00 58 1006.4
20260506005202 69 270 0.0 1.0 0.00 0.00 0.00 57 1006.3
20260506004702 69 270 0.0 0.0 0.00 0.00 0.00 57 1006.3
20260506003702 70 270 0.0 0.0 0.00 0.00 0.00 56 1006.2
20260506003203 70 270 0.0 2.0 0.00 0.00 0.00 55 1006.1
20260506002702 70 270 0.0 1.0 0.00 0.00 0.00 55 1006.1
20260506002245 70 270 0.0 2.0 0.00 0.00 0.00 54 1006.0
20260506001703 71 270 0.0 1.0 0.00 0.00 0.00 54 1006.0
20260506001202 71 270 0.0 3.0 0.00 0.00 0.00 53 1005.9
20260506000703 72 270 0.0 2.0 0.00 0.00 0.00 52 1005.9
20260506000204 72 279 1.0 5.0 0.00 0.00 0.00 52 1005.8
20260505235702 73 284 1.0 4.0 0.00 0.00 0.00 51 1005.7
20260505235244 73 286 1.0 3.0 0.00 0.00 0.00 50 1005.8
20260505234745 74 295 1.0 3.0 0.00 0.00 0.00 49 1005.6
20260505234202 74 295 2.0 5.0 0.00 0.00 0.00 48 1005.6
20260505233702 74 303 2.0 7.0 0.00 0.00 0.00 48 1005.6
20260505233203 74 244 2.0 11.0 0.00 0.00 0.00 47 1005.5
20260505232703 75 254 2.0 9.0 0.00 0.00 0.00 47 1005.4
20260505232202 75 236 2.0 6.0 0.00 0.00 0.00 47 1005.3
20260505231703 75 180 3.0 9.0 0.00 0.00 0.00 47 1005.1
20260505231202 75 213 2.0 14.0 0.00 0.00 0.00 48 1005.2
20260505230702 75 164 2.0 9.0 0.00 0.00 0.00 47 1005.0
20260505230203 75 184 1.0 6.0 0.00 0.00 0.00 47 1005.0
20260505225702 75 190 1.0 7.0 0.00 0.00 0.00 47 1005.0
20260505225202 75 184 2.0 7.0 0.00 0.00 0.00 47 1005.0
20260505224745 75 216 2.0 13.0 0.00 0.00 0.00 46 1005.0
20260505224202 75 166 2.0 7.0 0.00 0.00 0.00 46 1004.9
20260505223745 75 233 2.0 6.0 0.00 0.00 0.00 46 1005.0
20260505223202 74 230 3.0 11.0 0.00 0.00 0.00 47 1005.0
20260505222702 74 199 1.0 6.0 0.00 0.00 0.00 47 1005.1
20260505222245 75 156 1.0 7.0 0.00 0.00 0.00 47 1005.1
20260505221703 75 123 2.0 3.0 0.00 0.00 0.00 47 1005.1
20260505221202 75 210 2.0 9.0 0.00 0.00 0.00 47 1005.1
20260505220703 75 193 2.0 7.0 0.00 0.00 0.00 48 1005.1
20260505220202 75 160 2.0 6.0 0.00 0.00 0.00 47 1005.1
20260505215702 75 206 2.0 10.0 0.00 0.00 0.00 49 1005.0
20260505215245 75 174 2.0 9.0 0.00 0.00 0.00 46 1005.0
20260505214745 76 230 2.0 9.0 0.00 0.00 0.00 47 1004.9
20260505214245 76 200 2.0 6.0 0.00 0.00 0.00 48 1004.8
20260505213702 76 204 2.0 9.0 0.00 0.00 0.00 46 1004.8
20260505212703 76 156 2.0 6.0 0.00 0.00 0.00 46 1004.7
20260505212202 76 162 3.0 6.0 0.00 0.00 0.00 46 1004.6
20260505211703 76 199 3.0 13.0 0.00 0.00 0.00 48 1004.7
20260505210703 76 186 2.0 10.0 0.00 0.00 0.00 46 1004.7
20260505210202 76 234 2.0 13.0 0.00 0.00 0.00 45 1004.7
20260505205703 77 216 2.0 7.0 0.00 0.00 0.00 45 1004.7
20260505205203 77 208 2.0 11.0 0.00 0.00 0.00 45 1004.7
20260505204702 77 239 2.0 10.0 0.00 0.00 0.00 44 1004.7
20260505204245 77 214 3.0 9.0 0.00 0.00 0.00 45 1004.6
20260505203745 77 191 3.0 11.0 0.00 0.00 0.00 45 1004.8
20260505201303 78 212 5.0 19.0 0.00 0.00 0.00 41 1004.5
20260505200803 78 208 4.0 20.0 0.00 0.00 0.00 43 1004.7
20260505200302 79 161 4.0 11.0 0.00 0.00 0.00 41 1004.8
20260505195845 79 187 4.0 16.0 0.00 0.00 0.00 41 1004.7
20260505194803 81 173 3.0 8.0 0.00 0.00 0.00 41 1004.8
20260505194303 81 211 4.0 13.0 0.00 0.00 0.00 42 1004.8
20260505193845 81 216 4.0 10.0 0.00 0.00 0.00 42 1004.9
20260505193302 80 226 4.0 16.0 0.00 0.00 0.00 41 1005.1
20260505192803 80 201 5.0 13.0 0.00 0.00 0.00 42 1004.9
20260505192305 81 219 6.0 16.0 0.00 0.00 0.00 41 1005.0
20260505191803 81 226 5.0 27.0 0.00 0.00 0.00 42 1004.8
20260505191303 81 190 5.0 14.0 0.00 0.00 0.00 42 1004.9
20260505190802 80 197 4.0 13.0 0.00 0.00 0.00 45 1004.8
20260505190303 80 183 4.0 25.0 0.00 0.00 0.00 41 1005.0
20260505185803 80 194 2.0 9.0 0.00 0.00 0.00 44 1005.2
20260505184803 79 198 2.0 13.0 0.00 0.00 0.00 44 1005.4
20260505184303 79 202 3.0 15.0 0.00 0.00 0.00 46 1005.4
20260505183803 79 223 4.0 12.0 0.00 0.00 0.00 47 1005.8
20260505183303 78 177 3.0 12.0 0.00 0.00 0.00 47 1005.8
20260505182803 78 228 4.0 13.0 0.00 0.00 0.00 47 1006.0
20260505182305 79 223 4.0 15.0 0.00 0.00 0.00 46 1006.1
20260505181803 78 174 3.0 9.0 0.00 0.00 0.00 49 1006.2
20260505181303 77 223 3.0 15.0 0.00 0.00 0.00 49 1006.3
20260505180845 77 192 4.0 13.0 0.00 0.00 0.00 51 1006.3
20260505180302 77 195 2.0 14.0 0.00 0.00 0.00 49 1006.4
20260505175305 78 273 4.0 12.0 0.00 0.00 0.00 48 1006.3
20260505174802 78 226 4.0 10.0 0.00 0.00 0.00 47 1006.5
20260505174345 79 206 4.0 14.0 0.00 0.00 0.00 47 1006.5
20260505173803 79 258 3.0 10.0 0.00 0.00 0.00 47 1006.4
20260505173303 80 223 3.0 10.0 0.00 0.00 0.00 47 1006.3
20260505172845 80 215 3.0 14.0 0.00 0.00 0.00 47 1006.3
20260505172305 79 187 4.0 12.0 0.00 0.00 0.00 46 1006.2
20260505171803 79 239 3.0 12.0 0.00 0.00 0.00 45 1006.4
20260505171303 79 239 3.0 10.0 0.00 0.00 0.00 48 1006.4
20260505170803 79 166 3.0 10.0 0.00 0.00 0.00 47 1006.5
20260505170303 79 156 3.0 12.0 0.00 0.00 0.00 48 1006.3
20260505165802 79 246 3.0 12.0 0.00 0.00 0.00 46 1006.6
20260505165306 79 174 2.0 11.0 0.00 0.00 0.00 48 1006.7
20260505164803 78 176 4.0 7.0 0.00 0.00 0.00 50 1006.8
20260505164303 78 221 4.0 13.0 0.00 0.00 0.00 51 1006.9
20260505163845 78 201 4.0 14.0 0.00 0.00 0.00 48 1006.9
20260505162845 78 225 3.0 15.0 0.00 0.00 0.00 49 1007.2
20260505162345 78 210 3.0 17.0 0.00 0.00 0.00 49 1007.2
20260505161804 78 211 3.0 13.0 0.00 0.00 0.00 50 1007.3
20260505161303 78 239 4.0 11.0 0.00 0.00 0.00 52 1007.3
20260505160803 78 239 4.0 11.0 0.00 0.00 0.00 49 1007.2
20260505160345 78 235 4.0 11.0 0.00 0.00 0.00 50 1007.4
20260505153303 77 203 4.0 10.0 0.00 0.00 0.00 52 1007.6
20260505152803 77 238 4.0 13.0 0.00 0.00 0.00 51 1007.7
20260505151803 77 243 3.0 11.0 0.00 0.00 0.00 51 1007.7
20260505151303 76 181 2.0 12.0 0.00 0.00 0.00 52 1007.7
20260505150845 76 281 2.0 7.0 0.00 0.00 0.00 52 1007.7
20260505150302 76 213 2.0 12.0 0.00 0.00 0.00 51 1007.6
20260505140303 74 246 2.0 13.0 0.00 0.00 0.00 55 1008.0
20260505130303 69 210 2.0 9.0 0.00 0.00 0.00 60 1008.4
20260505124803 68 189 2.0 10.0 0.00 0.00 0.00 61 1008.4
20260505124303 68 215 2.0 11.0 0.00 0.00 0.00 63 1008.3
20260505123803 67 192 2.0 10.0 0.00 0.00 0.00 65 1008.4
20260505123303 67 198 2.0 11.0 0.00 0.00 0.00 66 1008.4
20260505122845 66 188 1.0 10.0 0.00 0.00 0.00 67 1008.4
20260505122305 66 199 1.0 12.0 0.00 0.00 0.00 67 1008.4
20260505121803 65 193 1.0 6.0 0.00 0.00 0.00 69 1008.4
20260505121303 65 182 1.0 6.0 0.00 0.00 0.00 68 1008.3
20260505120845 64 153 1.0 6.0 0.00 0.00 0.00 68 1008.0
20260505120303 64 170 1.0 7.0 0.00 0.00 0.00 67 1008.0
20260505115845 64 204 1.0 4.0 0.00 0.00 0.00 69 1008.2
20260505115345 63 175 1.0 8.0 0.00 0.00 0.00 69 1008.2
20260505114803 63 228 1.0 3.0 0.00 0.00 0.00 70 1008.3
20260505114303 63 230 1.0 2.0 0.00 0.00 0.00 70 1008.3
20260505113803 63 216 2.0 9.0 0.00 0.00 0.00 69 1008.2
20260505113345 63 220 1.0 7.0 0.00 0.00 0.00 70 1008.2
20260505112803 62 204 2.0 7.0 0.00 0.00 0.00 72 1008.2
20260505112305 62 200 2.0 10.0 0.00 0.00 0.00 72 1008.1
20260505111803 61 194 1.0 6.0 0.00 0.00 0.00 72 1008.1
20260505111345 61 174 1.0 5.0 0.00 0.00 0.00 73 1007.9
20260505110845 61 205 1.0 4.0 0.00 0.00 0.00 73 1008.0
20260505110303 61 168 2.0 9.0 0.00 0.00 0.00 73 1007.8
20260505101803 59 176 1.0 3.0 0.00 0.00 0.00 74 1007.5
20260505100804 59 196 1.0 7.0 0.00 0.00 0.00 73 1007.5
20260505100345 59 174 1.0 5.0 0.00 0.00 0.00 74 1007.6
20260505095845 59 214 2.0 6.0 0.00 0.00 0.00 74 1007.5
20260505095304 59 199 2.0 10.0 0.00 0.00 0.00 74 1007.4
20260505094803 59 158 1.0 5.0 0.00 0.00 0.00 74 1007.5
20260505094303 59 220 2.0 9.0 0.00 0.00 0.00 74 1007.4
20260505093803 59 186 2.0 5.0 0.00 0.00 0.00 74 1007.3
20260505093345 59 183 2.0 6.0 0.00 0.00 0.00 74 1007.3
20260505092803 59 178 2.0 4.0 0.00 0.00 0.00 74 1007.2
20260505092305 59 179 1.0 5.0 0.00 0.00 0.00 74 1007.3
20260505091303 59 199 1.0 6.0 0.00 0.00 0.00 74 1007.3
20260505090803 59 230 0.0 3.0 0.00 0.00 0.00 74 1007.3
20260505090303 59 185 1.0 2.0 0.00 0.00 0.00 74 1007.4
20260505085803 59 198 1.0 5.0 0.00 0.00 0.00 73 1007.4
20260505085345 59 212 1.0 3.0 0.00 0.00 0.00 73 1007.4
20260505084803 60 192 1.0 5.0 0.00 0.00 0.00 73 1007.3
20260505084345 60 150 1.0 3.0 0.00 0.00 0.00 73 1007.3
20260505083803 60 150 0.0 3.0 0.00 0.00 0.00 72 1007.3
20260505083346 60 196 0.0 5.0 0.00 0.00 0.00 72 1007.3
20260505082803 60 200 0.0 6.0 0.00 0.00 0.00 72 1007.4
20260505082304 60 200 0.0 3.0 0.00 0.00 0.00 72 1007.3
20260505081803 60 220 0.0 5.0 0.00 0.00 0.00 72 1007.3
20260505081303 60 232 1.0 3.0 0.00 0.00 0.00 72 1007.3
20260505080803 61 230 1.0 4.0 0.00 0.00 0.00 72 1007.3
20260505075804 60 251 2.0 7.0 0.00 0.00 0.00 72 1007.2
20260505075304 60 186 2.0 10.0 0.00 0.00 0.00 73 1007.2
20260505074845 60 195 1.0 9.0 0.00 0.00 0.00 73 1007.1
20260505074303 60 156 0.0 3.0 0.00 0.00 0.00 72 1007.0
20260505073803 61 150 1.0 1.0 0.00 0.00 0.00 73 1006.9
20260505073345 61 203 1.0 4.0 0.00 0.00 0.00 73 1006.9
20260505072804 60 153 1.0 9.0 0.00 0.00 0.00 72 1007.0
20260505072305 61 166 1.0 3.0 0.00 0.00 0.00 73 1007.1
20260505071846 61 173 1.0 5.0 0.00 0.00 0.00 72 1007.2
20260505071304 61 176 1.0 4.0 0.00 0.00 0.00 70 1007.2
20260505070803 61 157 1.0 7.0 0.00 0.00 0.00 69 1007.2
20260505070304 61 154 1.0 5.0 0.00 0.00 0.00 68 1007.2
20260505065803 61 195 0.0 3.0 0.00 0.00 0.00 68 1007.1
20260505065346 61 196 1.0 1.0 0.00 0.00 0.00 68 1007.2
20260505064845 61 197 1.0 3.0 0.00 0.00 0.00 67 1007.2
20260505064346 61 225 0.0 5.0 0.00 0.00 0.00 68 1007.3
20260505063803 61 222 1.0 3.0 0.00 0.00 0.00 67 1007.3
20260505063304 61 227 1.0 5.0 0.00 0.00 0.00 67 1007.2
20260505062803 61 226 1.0 3.0 0.00 0.00 0.00 66 1007.3
20260505062304 61 209 1.0 4.0 0.00 0.00 0.00 66 1007.3
20260505061803 61 145 1.0 8.0 0.00 0.00 0.00 66 1007.3
20260505061346 61 175 1.0 5.0 0.00 0.00 0.00 66 1007.3
20260505060804 61 160 1.0 5.0 0.00 0.00 0.00 66 1007.4
20260505060303 62 189 2.0 4.0 0.00 0.00 0.00 66 1007.4
20260505055846 62 228 1.0 10.0 0.00 0.00 0.00 66 1007.5
20260505055304 61 255 1.0 7.0 0.00 0.00 0.00 65 1007.5
20260505054803 61 182 1.0 4.0 0.00 0.00 0.00 65 1007.5
20260505054346 61 203 1.0 10.0 0.00 0.00 0.00 65 1007.6
20260505053804 61 194 1.0 4.0 0.00 0.00 0.00 66 1007.5
20260505053303 61 173 1.0 9.0 0.00 0.00 0.00 65 1007.6
20260505052846 61 173 1.0 4.0 0.00 0.00 0.00 65 1007.6
20260505052304 61 173 1.0 4.0 0.00 0.00 0.00 65 1007.7
20260505051804 61 244 0.0 4.0 0.00 0.00 0.00 65 1007.6
20260505051304 61 207 0.0 2.0 0.00 0.00 0.00 64 1007.6
20260505050845 61 181 0.0 5.0 0.00 0.00 0.00 64 1007.6
20260505050303 61 188 0.0 4.0 0.00 0.00 0.00 63 1007.7
20260505041345 61 201 2.0 6.0 0.00 0.00 0.00 61 1007.3
20260505040803 61 179 2.0 11.0 0.00 0.00 0.00 60 1007.2
20260505040303 62 191 1.0 9.0 0.00 0.00 0.00 61 1007.2
20260505035803 62 159 2.0 6.0 0.00 0.00 0.00 60 1007.2
20260505035346 62 184 2.0 6.0 0.00 0.00 0.00 59 1007.2
20260505034803 62 142 2.0 5.0 0.00 0.00 0.00 59 1007.1
20260505034346 62 172 2.0 6.0 0.00 0.00 0.00 59 1007.1
20260505033803 62 196 1.0 9.0 0.00 0.00 0.00 59 1007.2
20260505033304 62 190 2.0 6.0 0.00 0.00 0.00 59 1007.1
20260505032804 62 156 2.0 6.0 0.00 0.00 0.00 58 1007.2
20260505032346 62 190 2.0 10.0 0.00 0.00 0.00 58 1007.2
20260505031804 62 180 2.0 5.0 0.00 0.00 0.00 58 1007.2
20260505031303 62 175 2.0 6.0 0.00 0.00 0.00 59 1007.2
20260505030803 62 195 2.0 13.0 0.00 0.00 0.00 58 1007.1
20260505030303 62 139 1.0 5.0 0.00 0.00 0.00 58 1007.1
20260505025803 62 134 2.0 6.0 0.00 0.00 0.00 57 1007.1
20260505025305 63 164 2.0 14.0 0.00 0.00 0.00 57 1007.1
20260505024846 63 163 2.0 15.0 0.00 0.00 0.00 57 1007.1
20260505024303 63 168 2.0 6.0 0.00 0.00 0.00 56 1007.2